| time (UTC) | temp F | wind direction | speed MPH | gust MPH | rain 1hr in | rain 24hr in | rain mn in | humidity % | barometer mb |
| 20260502151515 | 62 | 356 | 3.0 | 11.0 | 0.00 | 1.34 | 0.30 | 70 | 1017.6 |
| 20260502123024 | 54 | 301 | 2.0 | 5.0 | 0.00 | 1.35 | 0.30 | 94 | 1015.9 |
| 20260502121524 | 53 | 308 | 1.0 | 6.0 | 0.00 | 1.35 | 0.30 | 95 | 1015.8 |
| 20260502114515 | 52 | 349 | 0.0 | 3.0 | 0.00 | 1.35 | 0.30 | 95 | 1015.5 |
| 20260502113025 | 52 | 313 | 0.0 | 2.0 | 0.00 | 1.35 | 0.30 | 95 | 1015.1 |
| 20260502111505 | 52 | 276 | 0.0 | 0.0 | 0.00 | 1.36 | 0.30 | 95 | 1014.7 |
| 20260502110010 | 52 | 276 | 0.0 | 1.0 | 0.00 | 1.36 | 0.30 | 95 | 1014.7 |
| 20260502104515 | 52 | 212 | 0.0 | 2.0 | 0.00 | 1.37 | 0.30 | 95 | 1014.6 |
| 20260502103019 | 52 | 332 | 0.0 | 0.0 | 0.02 | 1.39 | 0.30 | 94 | 1014.2 |
| 20260502101519 | 52 | 332 | 0.0 | 1.0 | 0.06 | 1.39 | 0.30 | 94 | 1014.1 |
| 20260502091519 | 52 | 76 | 1.0 | 2.0 | 0.12 | 1.33 | 0.24 | 94 | 1014.2 |
| 20260502071513 | 52 | 314 | 3.0 | 7.0 | 0.05 | 1.19 | 0.06 | 94 | 1015.2 |
| 20260502070017 | 52 | 314 | 1.0 | 5.0 | 0.01 | 1.16 | 0.02 | 94 | 1015.2 |
| 20260502064522 | 52 | 325 | 2.0 | 8.0 | 0.01 | 1.16 | 0.02 | 94 | 1014.9 |
| 20260502063003 | 52 | 28 | 1.0 | 5.0 | 0.01 | 1.16 | 0.02 | 94 | 1015.0 |
| 20260502061509 | 52 | 300 | 2.0 | 4.0 | 0.00 | 1.15 | 0.01 | 94 | 1015.2 |
| 20260502060015 | 51 | 4 | 2.0 | 6.0 | 0.01 | 1.16 | 0.01 | 94 | 1015.1 |
| 20260502054518 | 51 | 14 | 2.0 | 4.0 | 0.02 | 1.17 | 0.01 | 94 | 1015.1 |
| 20260502053023 | 51 | 15 | 1.0 | 7.0 | 0.02 | 1.17 | 0.01 | 94 | 1015.1 |
| 20260502051508 | 51 | 8 | 2.0 | 6.0 | 0.03 | 1.19 | 0.01 | 94 | 1014.8 |
| 20260502050011 | 51 | 341 | 1.0 | 4.0 | 0.02 | 1.17 | 0.00 | 94 | 1014.9 |
| 20260502044517 | 51 | 316 | 2.0 | 7.0 | 0.02 | 1.17 | 1.16 | 94 | 1015.1 |
| 20260502043021 | 51 | 32 | 3.0 | 9.0 | 0.04 | 1.17 | 1.16 | 94 | 1014.5 |
| 20260502041524 | 51 | 24 | 1.0 | 6.0 | 0.06 | 1.16 | 1.16 | 94 | 1015.2 |
| 20260502040029 | 51 | 315 | 1.0 | 4.0 | 0.08 | 1.17 | 1.16 | 94 | 1015.3 |
| 20260502034522 | 51 | 70 | 0.0 | 2.0 | 0.08 | 1.17 | 1.15 | 94 | 1015.8 |
| 20260502033016 | 51 | 35 | 2.0 | 4.0 | 0.07 | 1.16 | 1.13 | 94 | 1016.1 |
| 20260502031524 | 51 | 65 | 1.0 | 3.0 | 0.04 | 1.14 | 1.10 | 94 | 1016.2 |
| 20260502030024 | 51 | 6 | 0.0 | 2.0 | 0.02 | 1.12 | 1.08 | 94 | 1015.8 |
| 20260502024533 | 51 | 336 | 2.0 | 5.0 | 0.02 | 1.11 | 1.07 | 93 | 1015.5 |
| 20260502023013 | 51 | 11 | 1.0 | 5.0 | 0.04 | 1.10 | 1.05 | 93 | 1014.8 |
| 20260502021518 | 51 | 5 | 1.0 | 6.0 | 0.06 | 1.10 | 1.05 | 93 | 1015.1 |
| 20260502020024 | 51 | 347 | 1.0 | 3.0 | 0.06 | 1.10 | 1.05 | 94 | 1014.7 |
| 20260502014505 | 51 | 340 | 1.0 | 2.0 | 0.06 | 1.10 | 1.04 | 93 | 1014.8 |
| 20260502013011 | 51 | 57 | 1.0 | 2.0 | 0.04 | 1.10 | 1.02 | 93 | 1014.9 |
| 20260502011522 | 50 | 305 | 1.0 | 5.0 | 0.03 | 1.09 | 1.00 | 93 | 1013.7 |
| 20260502010020 | 50 | 12 | 2.0 | 4.0 | 0.04 | 1.11 | 1.00 | 92 | 1013.6 |
| 20260502004524 | 50 | 37 | 2.0 | 5.0 | 0.05 | 1.10 | 0.99 | 92 | 1013.4 |
| 20260502003007 | 50 | 39 | 1.0 | 6.0 | 0.06 | 1.09 | 0.98 | 92 | 1013.7 |
| 20260502001513 | 51 | 55 | 1.0 | 6.0 | 0.06 | 1.09 | 0.97 | 92 | 1013.8 |
| 20260502000018 | 51 | 41 | 3.0 | 9.0 | 0.07 | 1.08 | 0.96 | 92 | 1014.1 |
| 20260501234522 | 51 | 133 | 1.0 | 6.0 | 0.06 | 1.05 | 0.94 | 93 | 1013.7 |
| 20260501233030 | 51 | 178 | 0.0 | 2.0 | 0.07 | 1.04 | 0.92 | 93 | 1014.0 |
| 20260501231511 | 51 | 62 | 1.0 | 5.0 | 0.11 | 1.03 | 0.91 | 93 | 1013.6 |
| 20260501230014 | 51 | 11 | 1.0 | 7.0 | 0.12 | 1.01 | 0.89 | 92 | 1014.0 |
| 20260501224524 | 51 | 6 | 2.0 | 6.0 | 0.15 | 1.00 | 0.88 | 92 | 1014.4 |
| 20260501223022 | 51 | 56 | 2.0 | 7.0 | 0.15 | 0.97 | 0.85 | 91 | 1014.0 |
| 20260501221525 | 51 | 18 | 2.0 | 6.0 | 0.16 | 0.92 | 0.80 | 91 | 1014.0 |
| 20260501220018 | 51 | 24 | 2.0 | 10.0 | 0.17 | 0.89 | 0.77 | 91 | 1013.9 |
| 20260501214515 | 52 | 6 | 3.0 | 9.0 | 0.18 | 0.85 | 0.73 | 92 | 1014.1 |
| 20260501213018 | 52 | 325 | 2.0 | 8.0 | 0.20 | 0.82 | 0.70 | 92 | 1013.6 |
| 20260501211524 | 52 | 317 | 2.0 | 5.0 | 0.25 | 0.76 | 0.64 | 92 | 1014.4 |
| 20260501210029 | 52 | 360 | 1.0 | 4.0 | 0.24 | 0.72 | 0.60 | 91 | 1014.6 |
| 20260501204516 | 52 | 321 | 3.0 | 10.0 | 0.21 | 0.67 | 0.55 | 91 | 1014.1 |
| 20260501203015 | 53 | 356 | 4.0 | 12.0 | 0.22 | 0.62 | 0.50 | 90 | 1014.4 |
| 20260501201534 | 55 | 307 | 1.0 | 5.0 | 0.14 | 0.51 | 0.39 | 91 | 1014.6 |
| 20260501200026 | 55 | 71 | 3.0 | 13.0 | 0.12 | 0.48 | 0.36 | 88 | 1014.1 |
| 20260501194528 | 56 | 4 | 5.0 | 11.0 | 0.10 | 0.46 | 0.34 | 90 | 1013.5 |
| 20260501193022 | 56 | 333 | 2.0 | 8.0 | 0.04 | 0.40 | 0.28 | 89 | 1014.2 |
| 20260501191517 | 57 | 341 | 2.0 | 8.0 | 0.01 | 0.37 | 0.25 | 89 | 1014.1 |
| 20260501190025 | 58 | 12 | 4.0 | 7.0 | 0.00 | 0.36 | 0.24 | 87 | 1014.4 |
| 20260501184529 | 58 | 342 | 3.0 | 8.0 | 0.00 | 0.36 | 0.24 | 87 | 1014.6 |
| 20260501183027 | 58 | 12 | 1.0 | 5.0 | 0.00 | 0.36 | 0.24 | 90 | 1014.7 |
| 20260501181534 | 58 | 116 | 1.0 | 6.0 | 0.00 | 0.37 | 0.24 | 90 | 1014.7 |
| 20260501180021 | 59 | 10 | 1.0 | 9.0 | 0.00 | 0.38 | 0.24 | 89 | 1015.1 |
| 20260501174525 | 59 | 343 | 1.0 | 5.0 | 0.04 | 0.46 | 0.24 | 91 | 1015.2 |
| 20260501173028 | 59 | 21 | 2.0 | 8.0 | 0.07 | 0.52 | 0.24 | 91 | 1015.0 |
| 20260501171517 | 59 | 342 | 2.0 | 6.0 | 0.08 | 0.67 | 0.24 | 91 | 1015.3 |
| 20260501170022 | 59 | 61 | 1.0 | 9.0 | 0.09 | 0.67 | 0.24 | 91 | 1015.9 |
| 20260501164505 | 59 | 338 | 0.0 | 2.0 | 0.05 | 0.63 | 0.20 | 91 | 1016.7 |
| 20260501163004 | 59 | 41 | 1.0 | 6.0 | 0.02 | 0.60 | 0.17 | 91 | 1016.2 |
| 20260501161508 | 59 | 27 | 2.0 | 5.0 | 0.02 | 0.58 | 0.16 | 91 | 1016.1 |
| 20260501160012 | 59 | 290 | 1.0 | 8.0 | 0.01 | 0.58 | 0.15 | 91 | 1016.3 |
| 20260501154520 | 60 | 8 | 1.0 | 8.0 | 0.02 | 0.58 | 0.15 | 92 | 1015.6 |